Location: Ferchesar
(52.6477°N, 12.4298°E)
Time: 17:38:09
(UTC+01:00)

Explorer 7 - Pass Details

Date: 12 December 2021
Orbit: 483 x 674 km, 50.3° (Epoch: 23 January)

Event Time Altitude Azimuth Distance (km) Brightness Sun altitude
Rises 06:46:11 0° 275° (W) 2,824 - -12.1°
Reaches altitude 10° 06:48:34 10° 271° (W) 1,887 - -11.8°
Exits shadow 06:49:18 14° 268° (W) 1,606 8.6 -11.7°
Maximum altitude 06:52:45 52° 195° (SSW) 687 7.3 -11.2°
Drops below altitude 10° 06:56:40 10° 118° (ESE) 1,770 11.0 -10.6°
Sets 06:58:50 0° 114° (ESE) 2,630 12.6 -10.3°
